Location: Vancouver
(49.2500°N, 123.1330°W)
Time: 05:07:24
(UTC-07:00)

Iridium 35 - Visible Passes

Search period start: 21 September 2014 00:00
Search period end: 01 October 2014 00:00
Orbit: 776 x 779 km, 86.4° (Epoch: 20 September)

Date Brightness Start Highest point End Pass type
(mag) Time Alt. Az. Time Alt. Az. Time Alt. Az.
21 Sep 7.3 01:43:58 19° NNE 01:43:58 19° NNE 01:45:45 10° NNE visible
21 Sep 6.8 03:24:27 23° NNW 03:24:27 23° NNW 03:26:38 10° N visible
22 Sep 7.7 01:10:42 13° NE 01:10:42 13° NE 01:11:34 10° NNE visible
22 Sep 6.9 02:51:11 25° N 02:51:11 25° N 02:53:19 10° N visible
23 Sep 7.1 02:17:54 23° N 02:17:54 23° N 02:19:47 10° N visible
23 Sep 7.3 03:58:23 13° NW 03:58:23 13° NW 03:59:18 10° NNW visible
24 Sep 7.4 01:44:37 19° NNE 01:44:37 19° NNE 01:46:05 10° NNE visible
24 Sep 7.2 03:25:06 17° NNW 03:25:06 17° NNW 03:26:30 10° NNW visible
25 Sep 7.7 01:11:20 14° NNE 01:11:20 14° NNE 01:12:07 10° NNE visible
25 Sep 7.2 02:51:49 19° NNW 02:51:49 19° NNW 02:53:19 10° N visible
26 Sep 7.4 02:18:31 19° N 02:18:31 19° N 02:19:54 10° N visible
27 Sep 7.6 01:45:12 17° NNE 01:45:12 17° NNE 01:46:19 10° N visible
27 Sep 7.5 03:25:41 12° NNW 03:25:41 12° NNW 03:26:14 10° NNW visible
28 Sep 7.8 01:11:54 13° NNE 01:11:54 13° NNE 01:12:30 10° NNE visible
28 Sep 7.5 02:52:23 14° NNW 02:52:23 14° NNW 02:53:14 10° NNW visible
29 Sep 7.6 02:19:03 15° N 02:19:03 15° N 02:19:57 10° N visible
30 Sep 7.8 01:45:44 14° N 01:45:44 14° N 01:46:28 10° N visible
